User: anonymous   Login
Location: Eastchurch
(51.4000°N, 0.8667°E)
Time: 00:26:30
(UTC+00:00)
Language:

IRS-1C - Orbit

View from above orbital plane
View from above orbital plane
View from above satellite
View from above satellite

Ground track
Ground track

The orbit is defined by the following mean orbital elements,

1 23751U          26074.53192100 +.00000000 +00000-0 +64715-4 0 00008
2 23751  99.0287  91.1945 0000887  95.6783 264.4495 14.23543928    00
Epoch (UTC): 15 March 2026 12:45:57
Eccentricity: 0.0000887
inclination: 99.0287°
perigee height: 813 km
apogee height: 814 km
right ascension of ascending node: 91.1945°
argument of perigee: 95.6783°
revolutions per day: 14.23543928
mean anomaly at epoch: 264.4495°

The dashed part of the orbit path shows where the satellite is in the earth's shadow,  

DLR